DW1345 Weather Reports


time (UTC)temp
F
wind
direction
speed
knots
gust
knots
rain 1hr
in
rain 24hr
in
rain mn
in
humidity
%
barometer
mb
20260510170021 53 169 1.7 0.0 0.00 0.00 0.01 46 1003.6
20260510164522 54 170 3.5 0.0 0.00 0.00 0.01 46 1003.7
20260510163019 53 193 3.5 0.0 0.00 0.00 0.01 49 1004.0
20260510161517 52 207 1.7 0.0 0.00 0.00 0.01 51 1004.1
20260510160015 52 196 2.6 0.0 0.00 0.00 0.01 49 1004.3
20260510154513 54 198 2.6 0.0 0.00 0.00 0.01 46 1004.3
20260510153023 53 198 2.6 0.0 0.00 0.00 0.01 49 1004.4
20260510151511 53 187 0.0 0.0 0.00 0.00 0.01 51 1004.4
20260510150010 52 170 4.3 0.0 0.00 0.00 0.01 51 1004.5
20260510144515 51 196 2.6 0.0 0.00 0.00 0.01 56 1004.5
20260510143008 52 292 2.6 0.0 0.00 0.00 0.01 53 1004.5
20260510141507 54 156 3.5 0.0 0.00 0.00 0.01 49 1004.7
20260510140006 54 193 3.5 0.0 0.00 0.00 0.01 48 1004.8
20260510134505 54 186 2.6 0.0 0.00 0.00 0.01 50 1005.0
20260510133004 53 194 2.6 0.0 0.00 0.00 0.01 54 1004.9
20260510131503 52 182 2.6 0.0 0.00 0.00 0.01 51 1005.0
20260510130002 53 238 2.6 0.0 0.00 0.00 0.01 54 1004.8
20260510124620 53 240 2.6 0.0 0.00 0.00 0.01 49 1004.9
20260510123101 54 203 3.5 0.0 0.00 0.00 0.01 49 1004.9
20260510121558 54 193 2.6 0.0 0.00 0.00 0.01 50 1005.0
20260510120056 54 217 1.7 0.0 0.00 0.00 0.01 47 1005.0
20260510114603 53 192 1.7 0.0 0.00 0.00 0.01 48 1005.2
20260510113050 53 184 1.7 0.0 0.00 0.00 0.01 49 1005.1
20260510111549 52 182 2.6 0.0 0.00 0.00 0.01 52 1005.0
20260510110047 51 185 3.5 0.0 0.00 0.00 0.01 51 1005.1
20260510104604 51 174 1.7 0.0 0.00 0.00 0.01 53 1005.2
20260510103049 52 170 2.6 0.0 0.00 0.00 0.01 52 1004.9
20260510101545 52 136 3.5 0.0 0.00 0.00 0.01 52 1005.1
20260510100052 51 138 3.5 0.0 0.00 0.00 0.01 54 1005.1
20260510094547 51 156 3.5 0.0 0.00 0.00 0.01 53 1005.4
20260510093041 50 188 4.3 0.0 0.00 0.00 0.01 55 1005.2
20260510091541 51 184 3.5 0.0 0.00 0.00 0.01 55 1005.4
20260510090042 50 153 3.5 0.0 0.00 0.00 0.01 57 1005.3
20260510084549 50 113 4.3 0.0 0.00 0.00 0.01 56 1005.2
20260510081535 53 175 4.3 0.0 0.00 0.00 0.01 53 1005.2
20260510080032 53 124 3.5 0.0 0.00 0.00 0.01 54 1005.4
20260510074530 52 184 4.3 0.0 0.00 0.00 0.01 54 1005.5
20260510073032 52 181 2.6 0.0 0.00 0.00 0.01 56 1005.4
20260510071539 51 169 3.5 0.0 0.00 0.00 0.01 58 1005.6
20260510070028 49 158 3.5 0.0 0.00 0.00 0.01 59 1005.6
20260510064526 49 140 1.7 0.0 0.00 0.00 0.01 60 1005.6
20260510063019 48 153 3.5 0.0 0.00 0.00 0.01 61 1005.7
20260510061515 47 175 1.7 0.0 0.00 0.00 0.01 63 1005.7
20260510060014 47 166 3.5 0.0 0.00 0.00 0.01 63 1005.6
20260510054515 47 93 3.5 0.0 0.00 0.00 0.01 64 1005.6
20260510053008 46 132 3.5 0.0 0.00 0.00 0.01 66 1005.8
20260510051512 46 121 4.3 0.0 0.00 0.00 0.01 67 1006.0
20260510050005 46 134 4.3 0.0 0.00 0.00 0.01 67 1006.1
20260510044503 45 169 3.5 0.0 0.00 0.00 0.01 67 1006.1
20260510043002 45 135 3.5 0.0 0.00 0.00 0.01 71 1006.1
20260510041611 45 96 7.0 0.0 0.00 0.00 0.01 72 1006.3
20260510040055 44 132 7.0 0.0 0.00 0.00 0.01 73 1006.6
20260510040026 44 103 7.0 0.0 0.00 0.00 0.01 73 1006.6
20260510034553 44 103 7.0 0.0 0.00 0.00 0.01 74 1006.7
20260510033055 43 115 6.1 0.0 0.00 0.00 0.01 73 1006.9
20260510031556 43 81 5.2 0.0 0.00 0.00 0.01 75 1006.9
20260510030052 43 132 4.3 0.0 0.00 0.00 0.01 76 1007.4
20260510024554 42 119 5.2 0.0 0.00 0.00 0.01 79 1007.5
20260510023043 42 89 6.1 0.0 0.00 0.00 0.01 81 1007.7
20260510021542 42 142 5.2 0.0 0.00 0.00 0.01 82 1007.8
20260510020048 42 105 6.1 0.0 0.00 0.00 0.01 83 1008.1
20260510014539 42 82 6.1 0.0 0.00 0.00 0.01 85 1008.3
20260510013035 42 118 4.3 0.0 0.00 0.00 0.01 86 1008.7
20260510011537 41 84 5.2 0.0 0.00 0.00 0.01 88 1008.9
20260510010038 41 73 4.3 0.0 0.00 0.00 0.01 90 1009.1
20260510004527 41 97 5.2 0.0 0.00 0.00 0.01 91 1009.2
20260510003025 41 123 5.2 0.0 0.00 0.00 0.01 91 1009.5
20260510001524 40 96 2.6 0.0 0.00 0.00 0.01 91 1009.7
20260510000020 40 59 1.7 0.0 0.00 0.00 0.01 91 1009.8
20260509234518 40 71 1.7 0.0 0.00 0.00 0.01 91 1009.9
20260509233016 40 53 2.6 0.0 0.00 0.00 0.01 91 1010.2
20260509231526 40 51 3.5 0.0 0.00 0.00 0.01 91 1010.4
20260509230012 40 41 2.6 0.0 0.00 0.00 0.01 91 1010.7
20260509224512 40 37 2.6 0.0 0.00 0.00 0.01 91 1010.8
20260509223011 40 30 2.6 0.0 0.00 0.00 0.01 91 1010.5
20260509221518 40 33 1.7 0.0 0.00 0.00 0.01 91 1011.2
20260509220003 40 12 1.7 0.0 0.00 0.00 0.13 91 1011.4
20260509214602 41 5 0.9 0.0 0.00 0.00 0.13 90 1011.4
20260509213103 41 281 0.0 0.0 0.00 0.00 0.13 91 1011.7
20260509211559 40 281 0.0 0.0 0.00 0.00 0.13 91 1011.8
20260509210104 40 282 0.9 0.0 0.00 0.00 0.13 91 1011.8
20260509204602 40 285 1.7 0.0 0.00 0.00 0.13 90 1012.2
20260509203059 40 263 1.7 0.0 0.00 0.00 0.13 90 1012.3
20260509201556 41 269 2.6 0.0 0.00 0.00 0.11 90 1012.3
20260509200059 41 269 3.5 0.0 0.00 0.00 0.10 90 1012.4
20260509194551 42 281 4.3 0.0 0.00 0.00 0.09 88 1012.3
20260509193059 43 304 5.2 0.0 0.00 0.00 0.07 86 1012.1
20260509191607 46 116 0.0 0.0 0.00 0.00 0.04 86 1011.7
20260509190054 46 116 0.0 0.0 0.00 0.00 0.04 86 1011.5
20260509184544 46 116 0.0 0.0 0.00 0.00 0.03 85 1011.5
20260509183043 46 117 0.9 0.0 0.00 0.00 0.03 84 1011.7
20260509181540 46 121 3.5 0.0 0.00 0.00 0.03 84 1011.9
20260509180038 46 105 3.5 0.0 0.00 0.00 0.03 83 1011.9
20260509174538 46 86 3.5 0.0 0.00 0.00 0.02 82 1012.1
20260509173050 46 121 3.5 0.0 0.00 0.00 0.02 81 1012.1
20260509171542 47 107 4.3 0.0 0.00 0.00 0.02 80 1012.4